Location: Ailingen
(47.6833°N, 9.5000°E)
Time: 11:53:43
(UTC+00:00)

Okean 2 Rocket - Pass Details

Date: 18 November 2025
Orbit: 611 x 635 km, 82.5° (Epoch: 10 December)

Event Time Altitude Azimuth Distance (km) Brightness Sun altitude
Rises 17:10:35 0° 169° (S) 2,885 6.5 -14.8°
Reaches altitude 10° 17:12:53 10° 162° (SSE) 1,980 5.6 -15.1°
Maximum altitude 17:17:00 41° 92° (E) 898 3.4 -15.8°
Enters shadow 17:20:03 17° 29° (NNE) 1,592 4.8 -16.3°
